Location: Oak Glen
(34.0495°N, 116.9470°E)
Time: 23:11:48
(UTC-08:00)

Vanguard 1 - Pass Details

Date: 19 June 2018
Orbit: 649 x 3834 km, 34.3° (Epoch: 15 November)

Event Time Altitude Azimuth Distance (km) Brightness Sun altitude
Rises 22:25:28 0° 288° (WNW) 7,277 14.7 71.1°
Reaches altitude 10° 22:30:18 10° 283° (WNW) 6,530 14.6 70.2°
Maximum altitude 22:50:54 46° 220° (SW) 4,598 14.8 66.3°
Drops below altitude 10° 23:10:01 10° 154° (SSE) 6,031 14.1 62.5°
Sets 23:14:20 0° 148° (SSE) 6,700 14.2 61.7°
